Weather in Oranienburg

Germany     52°45′13″N   13°14′10″E
temp.,
°C
wind,
m/s
gust,
m/s
humid.,
%
clouds,
%
prec.,
mm/h
press.,
hPa
HPBL,
m
17 may, mon
mon1723:00+9ssw22935 1.4 100238
02:00+8s2294100 1.4 100123
05:00+8sw1197100 0.4 100114
08:00+11sw359024 0.8 1002349
11:00+15wsw34645 0.2 10021141
14:00+17w455480 1.0 10031893
17:00+16w445840 0.1 1004995
20:00+13wsw3685100 0.8 1004156
18 may, tue
tue1823:00+9wsw3494100 0.1 100674
02:00+8wsw279728 0.1 1006156
05:00+6wsw259813 0.0 1007109
08:00+10w469062 0.0 1009408
11:00+11w4790100 0.1 1010704
14:00+15w566297 0.6 10091520
17:00+15w566244 0.3 1010963
20:00+12w368339 0.9 1010208
19 may, wed
wed1923:00+8w229582 0.4 101131
02:00+8w2498100 0.7 1012125
05:00+9nw2599100 8.5 1012300
08:00+9wnw3694100 14.8 1014360
11:00+11wnw457899 0.3 1015869
14:00+14wnw5554100 0.7 10151470
17:00+14wnw4555100 0.0 10151143
20:00+12wsw237299 0.0 101567
20 may, thu
thu2023:00+8wsw239211 0.0 101648
02:00+7wsw369710 0.0 1016134
05:00+7w389593 0.0 1018284
08:00+9wnw478851 0.0 1019555
11:00+13wnw5661100 0.1 10201440
14:00+15wnw685068 0.2 10201931
17:00+14wnw585798 0.1 10211764
20:00+11w37699 0.3 1021485
21 may, fri
fri2123:00+7w25945 0.0 1021103
02:00+5w25965 0.0 102190
05:00+4w24975 0.0 102071
08:00+10wsw24795 0.0 1019362
11:00+15wsw355588 0.0 10181433
14:00+17wsw3544100 0.0 10151961
17:00+14sw3572100 0.3 1014712
20:00+13ese2582100 0.4 1011146